Language selection

Weather shortcuts

Atlantic - Labrador: Past 24 Hour Conditions

 

CFB Goose Bay

04:00 PM ADT 18 July 2024
Disclaimer

This table is a summary of hourly weather conditions for the past 24 hours.
Please note that these observations might not always be representative of weather conditions over their associated marine area.

Date / Time
(ADT)
Wind(knots) Conditions Visibility(km) Pressure(kPa) Air tempC) Relative humidity(%) Dew pointC)
18 July 2024
16:00 ENE 8 Light Rainshower 8 100.4 16 96 15
15:00 NE 7 Light Rainshower 19 100.5 15 96 15
14:00 NNE 6 Light Rainshower 19 100.5 15 96 15
13:00 NE 9 Fog 2 100.5 14 97 14
12:00 NNE 6 Light Rainshower 10 100.6 14 97 14
11:00 NNE 8 Light Rainshower 19 100.6 15 95 14
10:00 NNE 7 Light Rainshower 16 100.6 14 97 13
9:00 NNE 6 Light Rainshower 10 100.6 13 97 13
8:00 NNE 8 Cloudy 13 100.6 13 97 13
7:00 NNE 8 Fog 8 100.6 13 98 13
6:00 NNE 7 Fog 6 100.6 14 98 13
5:00 N 7 Light Rainshower 10 100.5 14 98 13
4:00 NNE 5 Light Rainshower 13 100.6 14 98 13
3:00 N 8 Light Rainshower 16 100.6 14 97 14
2:00 NE 7 Light Rainshower 16 100.6 14 97 14
1:00 NNE 6 Cloudy 24 100.7 15 94 14
0:00 NE 6 Mostly Cloudy 24 100.7 15 92 14
17 July 2024
23:00 NE 5 Mostly Cloudy 24 100.7 16 90 14
22:00 NE 6 Cloudy 24 100.7 16 87 14
21:00 ENE 8 Cloudy 24 100.6 16 91 15
20:00 NE 6 Mostly Cloudy 24 100.6 17 92 15
19:00 ENE 7 Light Rainshower 24 100.5 17 89 15
18:00 NE 6 Cloudy 24 100.5 18 84 15
17:00 NE 7 Cloudy 24 100.5 19 81 15
16:00 ENE 10 Mostly Cloudy 24 100.5 18 83 15

Zoom-in to make a selection

Map of Atlantic - Labrador marine weather areas Kangiqsualujjuaq Airport Cape Kakkiviak Cape Kiglapait Cartwright Airport CFB Goose Bay Hopedale Mary's Harbour Nain Airport Makkovik Airport Saglek Tukialik Bay
Legend:
buoy Buoy
land station Land Station

Atlantic - Labrador Area

Another Region

Features

New Predicting and Alerting Coastal Flooding Program

Find out about coastal flooding coverage, forecasts and warnings in your region

Date modified: